Regional Weather Roundup
Issued by NWS Upton, NY

Current Version | Previous Version | Text Only | Print | Product List | Glossary On
Versions: 1 2 3 4 5 6 7 8 9 10 11 12 13 14 15 16 17 18 19 20 21 22 23 24 25 26 27 28 29 30 31 32 33 34 35 36 37 38 39 40 41 42 43 44 45 46 47 48 49 50
000 ASUS41 KOKX 010504 RWROKX REGIONAL WEATHER ROUNDUP NATIONAL WEATHER SERVICE NEW YORK NY 100 AM EDT TUE SEP 01 2015 NOTE: "FAIR" INDICATES FEW OR NO CLOUDS BELOW 12,000 FEET WITH NO SIGNIFICANT WEATHER AND/OR OBSTRUCTIONS TO VISIBILITY. NYZ071-072-176-178-NJZ106-104-010600- NEW YORK CITY METRO AREA CITY SKY/WX TMP DP RH WIND PRES REMARKS CENTRAL PARK CLEAR 81 66 60 VRB5 30.03R LAGUARDIA APRT PTCLDY 82 67 60 W7 29.99R KENNEDY INTL PTCLDY 79 71 76 SW9 30.01R NEWARK/LIBERTY PTCLDY 81 68 64 W7 30.00R BRNX BOT. GARD N/A 81 64 57 W2 30.02R TETERBORO CLEAR 80 65 59 W6 29.99R $$ NYZ177-179-078>081-010600- LONG ISLAND NEW YORK CITY SKY/WX TMP DP RH WIND PRES REMARKS FARMINGDALE CLEAR 80 68 66 W6 30.00R ISLIP CLEAR 77 68 73 W5 29.98R SHIRLEY PTCLDY 75 68 78 NW6 30.00R WESTHAMPTON PTCLDY 74 69 85 NW3 30.00R MONTAUK POINT N/A 76 71 85 W3 29.99R $$ NYZ052-065-067-010600- HUDSON VALLEY CITY SKY/WX TMP DP RH WIND PRES REMARKS WHITE PLAINS PTCLDY 73 67 81 N5 30.01R NEWBURGH NOT AVBL MONTGOMERY CLEAR 71 66 84 NW5 30.02R POUGHKEEPSIE CLEAR 68 65 90 CALM 30.00R ALBANY MOCLDY 71 62 73 CALM 30.01R $$ NJZ001-105-106-008-010-013-015-019>022-104-010600- NEW JERSEY CITY SKY/WX TMP DP RH WIND PRES REMARKS NEWARK/LIBERTY PTCLDY 81 68 64 W7 30.00R TETERBORO CLEAR 80 65 59 W6 29.99R CALDWELL CLEAR 75 66 73 CALM 30.01R MORRISTOWN CLEAR 70 64 83 CALM 30.01S SOMERVILLE PTCLDY 71 67 87 CALM 30.00R SUSSEX CLEAR 67 65 93 CALM 30.03R FOG ANDOVER N/A 68 67 96 CALM 30.04R TRENTON CLEAR 75 67 76 SW6 30.02S MILLVILLE CLEAR 74 70 87 W6 30.05S ATLANTIC CITY CLEAR 75 69 81 SW6 30.04S WRIGHTSTOWN NOT AVBL TOMS RIVER CLEAR 73 64 73 W8 30.03F BELMAR CLEAR 75 63 64 SW8 30.02S $$ PAZ047>061-062-071-010600- EASTERN PENNSYLVANIA CITY SKY/WX TMP DP RH WIND PRES REMARKS PHILADELPHIA CLEAR 77 67 71 SW12 30.04S ALLENTOWN CLEAR 74 68 81 SW3 30.03R SCRANTON PTCLDY 71 66 84 E6 30.06R $$ CTZ002-004>006-009-010-012-RIZ004-006-007-MAZ004-011-015-010600- SOUTHERN NEW ENGLAND IN CT CITY SKY/WX TMP DP RH WIND PRES REMARKS BRADLEY INTL CLEAR 70 64 81 W6 29.98R HARTFORD CLEAR 78 63 59 NW8 29.99R DANBURY CLEAR 69 64 84 SW3 30.03R WTRBRY/OXFORD CLEAR 68 61 77 CALM 30.04R BRIDGEPORT CLOUDY 78 66 66 N6 29.99R MERIDEN CLEAR 69 65 86 CALM 30.00R NEW HAVEN CLEAR 76 65 68 N5 29.99R CHESTER NOT AVBL GROTON CLEAR 73 68 84 N5 29.97S WILLIMANTIC CLEAR 68 65 90 CALM 29.99R FOG IN RI CITY SKY/WX TMP DP RH WIND PRES REMARKS PROVIDENCE CLEAR 73 64 73 W7 29.97R BLOCK ISLAND CLEAR 73 72 94 NW6 29.99R WESTERLY PTCLDY 75 67 76 CALM 29.99R IN MA CITY SKY/WX TMP DP RH WIND PRES REMARKS BOSTON CLEAR 77 63 61 NW9 29.96R WORCESTER CLEAR 68 61 78 W9 30.02R WESTFIELD CLEAR 66 63 90 CALM 29.99R PROVINCETOWN N/A 72 63 73 W8 29.96R NANTUCKET CLEAR 73 69 87 W10 29.95S $$ ANZ330-335-338-340-345-350-353-355-010600- COASTAL MARINE OBSERVATIONS STATION/POSITION TIME SKY/WX TEMP WIND PRES VSBY WAVE AIR SEA DIR/SP/G HT/PER (UTC) (F) (DEG/KT/KT) (MB) (MI) (FT/S) NY HARB ENTRANCE 0350 78 76 240/ 12/ 14 1015.3 3/ 9 4S FIRE IS NOT AVBL 20S FIRE ISLAND 0350 76 74 250/ 16/ 17 1015.3 4/ 5 GREAT SOUTH BAY 0430 78 78 250/ 12/ 14 N/A 23SW MTP 0450 75 72 260/ 12/ 14 1014.7 3/ 9 HUDSON CANYON NOT AVBL KINGS POINT 0400 81 74 280/ 5/ 6 N/A EXECUTION ROCKS 0400 81 250/ 8/ 10 N/A CENTRAL LI SOUND NOT AVBL EASTERN LI SOUND 0400 73 70 270/ 4/ 6 N/A ROBBINS REEF 0400 82 280/ 16/ 19 N/A $$ >>>>>>>>>>>>>>>>>>>>>>>>>>>> KEY <<<<<<<<<<<<<<<<<<<<<<<<<<< > < > SKY/WX - SKY CONDITION/PRESENT WEATHER < > TMP - TEMPERATURE IN FAHRENHEIT < > DP - DEWPOINT IN FAHRENHEIT < > RH - RELATIVE HUMIDITY IN PERCENT < > WIND - DIRECTION AND SPEED IN MPH < > PRES - MEAN SEA LEVEL PRESSURE IN INCHES OF HG < > WCI - WIND CHILL INDEX < > VSB - VISIBILITY IN MILES < > HX - HEAT INDEX < > TC - TEMPERATURE IN CELSIUS < > VRB - VARIABLE WIND DIRECTION < > < >>>>>>>>>>>>>>>>>>>>>>>>>>>> KEY <<<<<<<<<<<<<<<<<<<<<<<<<<<

USA.gov is the U.S. government's official web portal to all federal, state and local government web resources and services.